This is the latest recevied weather packets stored in our database for station/object IN3XSV-13. If no packets are shown the sender has not sent any weather packets the latest 10 day(s).
| Time | Temp. | Humidity | Pressure | Rain* | Wind** | Luminosity | Snow |
|---|---|---|---|---|---|---|---|
| 1777535942 | 16.67° C | 59% | 9962.3 hPa | 0 mm | - | - | - |
| 1777535642 | 16.67° C | 63% | 9962.3 hPa | 0 mm | - | - | - |
| 1777535342 | 15.56° C | 62% | 9962.3 hPa | 0 mm | - | - | - |
| 1777535042 | 16.11° C | 60% | 9962.2 hPa | 0 mm | - | - | - |
| 1777534742 | 16.11° C | 60% | 9962.3 hPa | 0 mm | - | - | - |
| 1777534442 | 15.56° C | 62% | 9962.3 hPa | 0 mm | - | - | - |
| 1777534142 | 15° C | 65% | 9962.3 hPa | 0 mm | - | - | - |
| 1777533842 | 14.44° C | 66% | 9962.2 hPa | 0 mm | - | - | - |
| 1777533542 | 15° C | 65% | 9962.2 hPa | 0 mm | - | - | - |
| 1777533242 | 15.56° C | 62% | 9962.2 hPa | 0 mm | - | - | - |
| 1777532942 | 17.78° C | 60% | 9962.3 hPa | 0 mm | - | - | - |
| 1777532642 | 17.78° C | 59% | 9962.1 hPa | 0 mm | - | - | - |
| 1777532342 | 17.22° C | 60% | 9962 hPa | 0 mm | - | - | - |
| 1777532042 | 17.22° C | 60% | 9961.9 hPa | 0 mm | - | - | - |
| 1777531742 | 17.78° C | 61% | 9961.8 hPa | 0 mm | - | - | - |
| 1777531442 | 17.78° C | 65% | 9961.8 hPa | 0 mm | - | - | - |
| 1777531142 | 17.78° C | 69% | 9961.9 hPa | 0 mm | - | - | - |
| 1777530842 | 16.67° C | 71% | 9962 hPa | 0 mm | - | - | - |
| 1777530542 | 16.67° C | 70% | 9961.9 hPa | 0 mm | - | - | - |
| 1777530242 | 15.56° C | 70% | 9962.1 hPa | 0 mm | - | - | - |
| 1777529942 | 14.44° C | 72% | 9961.9 hPa | 0 mm | - | - | - |
| 1777529642 | 13.89° C | 73% | 9961.9 hPa | 0 mm | - | - | - |
| 1777529342 | 13.89° C | 73% | 9961.9 hPa | 0 mm | - | - | - |
| 1777529042 | 14.44° C | 75% | 9961.7 hPa | 0 mm | - | - | - |
| 1777528742 | 13.89° C | 76% | 9961.7 hPa | 0 mm | - | - | - |
* Rain latest hour (hover to see other rain measurements)
** Current wind speed in m/s (hover to see current wind gust speed)